Location: Chevoux
(46.3801°N, 4.9476°E)
Time: 22:59:46
(UTC+00:00)

X-37B - Pass Details

Date: 28 January 2021
Orbit: 383 x 391 km, 45.0° (Epoch: 27 February)

Event Time Altitude Azimuth Distance (km) Brightness Sun altitude
Rises 19:20:44 0° 275° (W) 2,276 5.8 -27.9°
Reaches altitude 10° 19:23:10 10° 257° (WSW) 1,420 4.3 -28.3°
Enters shadow 19:23:54 14° 246° (WSW) 1,217 3.8 -28.4°
